Time,TemperatureF,DewpointF,PressureIn,WindDirection,WindDirectionDegrees,WindSpeedMPH,WindSpeedGustMPH,Humidity,HourlyPrecipIn,Conditions,Clouds,dailyrainin,SolarRadiationWatts/m^2,SoftwareType,DateUTC
2013-04-11 00:02:00,37.2,35.0,29.71,WNW,296,0.0,5.0,93,0.00,,,0.00,0,Custom,2013-04-11 05:02:00,
2013-04-11 00:07:00,37.0,35.0,29.71,WNW,290,0.0,4.0,93,0.00,,,0.00,0,Custom,2013-04-11 05:07:00,
2013-04-11 00:12:00,36.9,35.0,29.72,WNW,292,0.0,5.0,93,0.00,,,0.00,0,Custom,2013-04-11 05:12:00,
2013-04-11 00:17:00,36.8,35.0,29.72,WNW,293,0.0,5.0,93,0.00,,,0.00,0,Custom,2013-04-11 05:17:00,
2013-04-11 00:22:00,36.8,35.0,29.72,West,274,0.0,7.0,93,0.00,,,0.00,0,Custom,2013-04-11 05:22:00,
2013-04-11 00:27:00,36.7,35.0,29.72,WNW,289,0.0,6.0,93,0.00,,,0.00,0,Custom,2013-04-11 05:27:00,
2013-04-11 00:32:00,36.5,35.0,29.72,WNW,286,0.0,5.0,93,0.00,,,0.00,0,Custom,2013-04-11 05:32:00,
2013-04-11 00:37:00,36.5,35.0,29.72,WNW,303,0.0,7.0,93,0.00,,,0.00,0,Custom,2013-04-11 05:37:00,
2013-04-11 00:42:00,36.4,35.0,29.72,West,276,0.0,6.0,93,0.00,,,0.00,0,Custom,2013-04-11 05:42:00,
2013-04-11 00:47:00,36.2,34.0,29.72,WNW,297,0.0,5.0,92,0.00,,,0.00,0,Custom,2013-04-11 05:47:00,
2013-04-11 00:52:00,36.0,34.0,29.72,WNW,288,0.0,5.0,92,0.00,,,0.00,0,Custom,2013-04-11 05:52:00,
2013-04-11 00:57:00,35.9,34.0,29.72,WNW,300,0.0,8.0,92,0.00,,,0.00,0,Custom,2013-04-11 05:57:00,
2013-04-11 01:02:00,35.9,34.0,29.72,WNW,288,0.0,3.0,92,0.00,,,0.00,0,Custom,2013-04-11 06:02:00,
2013-04-11 01:07:00,35.9,34.0,29.72,WNW,289,0.0,3.0,92,0.00,,,0.00,0,Custom,2013-04-11 06:07:00,
2013-04-11 01:12:00,35.9,34.0,29.72,WNW,287,0.0,6.0,92,0.00,,,0.00,0,Custom,2013-04-11 06:12:00,
2013-04-11 01:17:00,35.8,34.0,29.72,WNW,294,0.0,4.0,92,0.00,,,0.00,0,Custom,2013-04-11 06:17:00,
2013-04-11 01:22:00,35.8,34.0,29.72,WNW,283,0.0,3.0,92,0.00,,,0.00,0,Custom,2013-04-11 06:22:00,
2013-04-11 01:27:00,35.8,34.0,29.72,WNW,287,0.0,8.0,92,0.00,,,0.00,0,Custom,2013-04-11 06:27:00,
2013-04-11 01:32:00,35.7,34.0,29.72,WNW,291,0.0,8.0,92,0.00,,,0.00,0,Custom,2013-04-11 06:32:00,
2013-04-11 01:37:00,35.6,34.0,29.72,West,281,2.0,4.0,92,0.00,,,0.00,0,Custom,2013-04-11 06:37:00,
2013-04-11 01:43:00,35.6,33.0,29.72,West,260,0.0,4.0,92,0.00,,,0.00,0,Custom,2013-04-11 06:43:00,
2013-04-11 01:48:00,35.6,34.0,29.72,WSW,256,3.0,4.0,92,0.00,,,0.00,0,Custom,2013-04-11 06:48:00,
2013-04-11 01:53:00,35.5,33.0,29.72,West,281,0.0,4.0,92,0.00,,,0.00,0,Custom,2013-04-11 06:53:00,
2013-04-11 01:58:00,35.5,33.0,29.72,West,275,0.0,5.0,92,0.00,,,0.00,0,Custom,2013-04-11 06:58:00,
2013-04-11 02:03:00,35.4,33.0,29.72,WNW,295,0.0,5.0,92,0.00,,,0.00,0,Custom,2013-04-11 07:03:00,
2013-04-11 02:08:00,35.5,34.0,29.72,WNW,286,0.0,3.0,93,0.00,,,0.00,0,Custom,2013-04-11 07:08:00,
2013-04-11 02:13:00,35.4,33.0,29.72,WNW,296,0.0,2.0,92,0.00,,,0.00,0,Custom,2013-04-11 07:13:00,
2013-04-11 02:18:00,35.3,33.0,29.71,WNW,289,0.0,5.0,93,0.00,,,0.00,0,Custom,2013-04-11 07:18:00,
2013-04-11 02:23:00,35.3,33.0,29.71,West,279,0.0,1.0,92,0.00,,,0.00,0,Custom,2013-04-11 07:23:00,
2013-04-11 02:28:00,35.3,33.0,29.70,WNW,296,0.0,2.0,92,0.00,,,0.00,0,Custom,2013-04-11 07:28:00,
2013-04-11 02:33:00,35.0,33.0,29.69,WNW,283,0.0,2.0,92,0.00,,,0.00,0,Custom,2013-04-11 07:33:00,
2013-04-11 02:38:00,35.1,33.0,29.68,WNW,282,0.0,3.0,92,0.00,,,0.00,0,Custom,2013-04-11 07:38:00,
2013-04-11 02:43:00,34.9,33.0,29.68,NW,306,0.0,5.0,92,0.00,,,0.00,0,Custom,2013-04-11 07:43:00,
2013-04-11 02:48:00,35.0,33.0,29.68,WNW,291,0.0,3.0,92,0.00,,,0.00,0,Custom,2013-04-11 07:48:00,
2013-04-11 02:53:00,35.0,33.0,29.68,West,275,0.0,4.0,92,0.00,,,0.00,0,Custom,2013-04-11 07:53:00,
2013-04-11 02:58:00,34.9,33.0,29.68,WNW,283,0.0,2.0,91,0.00,,,0.00,0,Custom,2013-04-11 07:58:00,
2013-04-11 03:03:00,34.9,33.0,29.68,WNW,284,0.0,3.0,92,0.00,,,0.00,0,Custom,2013-04-11 08:03:00,
2013-04-11 03:08:00,34.9,33.0,29.66,WNW,288,0.0,3.0,91,0.00,,,0.00,0,Custom,2013-04-11 08:08:00,
2013-04-11 03:13:00,34.8,32.0,29.66,NW,307,0.0,4.0,91,0.00,,,0.00,0,Custom,2013-04-11 08:13:00,
2013-04-11 03:18:00,34.7,32.0,29.67,WNW,287,0.0,4.0,91,0.00,,,0.00,0,Custom,2013-04-11 08:18:00,
2013-04-11 03:23:00,34.7,32.0,29.67,WNW,292,0.0,4.0,90,0.00,,,0.00,0,Custom,2013-04-11 08:23:00,
2013-04-11 03:28:00,34.8,32.0,29.67,West,280,0.0,4.0,90,0.00,,,0.00,0,Custom,2013-04-11 08:28:00,
2013-04-11 03:33:00,34.7,32.0,29.67,WNW,297,6.0,6.0,90,0.00,,,0.00,0,Custom,2013-04-11 08:33:00,
2013-04-11 03:38:00,34.7,32.0,29.67,WNW,286,3.0,5.0,90,0.00,,,0.00,0,Custom,2013-04-11 08:38:00,
2013-04-11 03:43:00,34.7,32.0,29.68,West,280,4.0,5.0,90,0.00,,,0.00,0,Custom,2013-04-11 08:43:00,
2013-04-11 03:48:00,34.7,32.0,29.67,WNW,299,2.0,4.0,90,0.00,,,0.00,0,Custom,2013-04-11 08:48:00,
2013-04-11 03:53:00,34.8,32.0,29.67,WNW,289,3.0,3.0,90,0.00,,,0.00,0,Custom,2013-04-11 08:53:00,
2013-04-11 03:58:00,34.8,32.0,29.67,WNW,288,2.0,3.0,90,0.00,,,0.00,0,Custom,2013-04-11 08:58:00,
2013-04-11 04:03:00,34.6,32.0,29.67,WNW,286,0.0,4.0,90,0.00,,,0.00,0,Custom,2013-04-11 09:03:00,
2013-04-11 04:08:00,34.5,32.0,29.67,WNW,291,4.0,4.0,89,0.00,,,0.00,0,Custom,2013-04-11 09:08:00,
2013-04-11 04:13:00,34.5,32.0,29.66,WNW,282,4.0,4.0,90,0.00,,,0.00,0,Custom,2013-04-11 09:13:00,
2013-04-11 04:18:00,34.4,32.0,29.66,WNW,291,1.0,4.0,89,0.00,,,0.00,0,Custom,2013-04-11 09:18:00,
2013-04-11 04:23:00,34.5,32.0,29.67,WNW,298,1.0,4.0,90,0.00,,,0.00,0,Custom,2013-04-11 09:23:00,
2013-04-11 04:28:00,34.5,32.0,29.66,WNW,291,0.0,3.0,89,0.00,,,0.00,0,Custom,2013-04-11 09:28:00,
2013-04-11 04:33:00,34.4,31.0,29.66,WNW,291,2.0,3.0,89,0.00,,,0.00,0,Custom,2013-04-11 09:33:00,
2013-04-11 04:38:00,34.3,31.0,29.67,WNW,291,4.0,4.0,89,0.00,,,0.00,0,Custom,2013-04-11 09:38:00,
2013-04-11 04:43:00,34.2,31.0,29.67,WNW,289,0.0,3.0,89,0.00,,,0.00,0,Custom,2013-04-11 09:43:00,
2013-04-11 04:48:00,34.2,31.0,29.67,WNW,289,0.0,3.0,89,0.00,,,0.00,0,Custom,2013-04-11 09:48:00,
2013-04-11 04:53:00,34.3,31.0,29.67,WNW,285,0.0,3.0,89,0.00,,,0.00,0,Custom,2013-04-11 09:53:00,
2013-04-11 04:58:00,34.3,31.0,29.67,West,279,0.0,5.0,89,0.00,,,0.00,0,Custom,2013-04-11 09:58:00,
2013-04-11 05:03:00,34.3,31.0,29.67,NW,319,0.0,3.0,89,0.00,,,0.00,0,Custom,2013-04-11 10:03:00,
2013-04-11 05:08:00,34.3,31.0,29.68,WNW,288,1.0,2.0,87,0.00,,,0.00,0,Custom,2013-04-11 10:08:00,
2013-04-11 05:13:00,34.4,31.0,29.68,WNW,288,0.0,2.0,88,0.00,,,0.00,0,Custom,2013-04-11 10:13:00,
2013-04-11 05:18:00,34.4,31.0,29.68,WNW,286,2.0,3.0,88,0.00,,,0.00,0,Custom,2013-04-11 10:18:00,
2013-04-11 05:23:00,34.5,31.0,29.68,WNW,285,2.0,3.0,88,0.00,,,0.00,0,Custom,2013-04-11 10:23:00,
2013-04-11 05:28:00,34.5,31.0,29.68,WNW,284,0.0,2.0,88,0.00,,,0.00,0,Custom,2013-04-11 10:28:00,
2013-04-11 05:33:00,34.4,31.0,29.69,WNW,283,0.0,1.0,88,0.00,,,0.00,0,Custom,2013-04-11 10:33:00,
2013-04-11 05:38:00,34.4,31.0,29.69,WNW,283,0.0,1.0,88,0.00,,,0.00,0,Custom,2013-04-11 10:38:00,
2013-04-11 05:43:00,34.5,31.0,29.69,West,274,3.0,3.0,88,0.00,,,0.00,0,Custom,2013-04-11 10:43:00,
2013-04-11 05:48:00,34.5,31.0,29.69,WNW,292,2.0,2.0,88,0.00,,,0.00,0,Custom,2013-04-11 10:48:00,
2013-04-11 05:53:00,34.4,31.0,29.69,West,276,0.0,4.0,87,0.00,,,0.00,0,Custom,2013-04-11 10:53:00,
2013-04-11 05:58:00,34.5,31.0,29.68,West,276,0.0,3.0,87,0.00,,,0.00,0,Custom,2013-04-11 10:58:00,
2013-04-11 06:03:00,34.3,31.0,29.67,West,276,4.0,4.0,86,0.00,,,0.00,0,Custom,2013-04-11 11:03:00,
2013-04-11 06:08:00,34.3,31.0,29.67,WNW,284,0.0,4.0,87,0.00,,,0.00,0,Custom,2013-04-11 11:08:00,
2013-04-11 06:13:00,34.3,31.0,29.67,WNW,284,5.0,5.0,86,0.00,,,0.00,0,Custom,2013-04-11 11:13:00,
2013-04-11 06:18:00,34.3,30.0,29.67,WNW,294,2.0,4.0,86,0.00,,,0.00,0,Custom,2013-04-11 11:18:00,
2013-04-11 06:23:00,34.2,30.0,29.67,West,271,0.0,2.0,85,0.00,,,0.00,0,Custom,2013-04-11 11:23:00,
2013-04-11 06:28:00,34.2,30.0,29.67,WNW,285,2.0,2.0,85,0.00,,,0.00,0,Custom,2013-04-11 11:28:00,
2013-04-11 06:33:00,34.2,30.0,29.67,WNW,285,0.0,2.0,85,0.00,,,0.00,0,Custom,2013-04-11 11:33:00,
2013-04-11 06:38:00,34.2,30.0,29.67,WNW,285,3.0,3.0,85,0.00,,,0.00,0,Custom,2013-04-11 11:38:00,
2013-04-11 06:43:00,34.1,30.0,29.67,SW,223,0.0,2.0,85,0.00,,,0.00,0,Custom,2013-04-11 11:43:00,
2013-04-11 06:48:00,34.2,30.0,29.67,West,270,0.0,2.0,85,0.00,,,0.00,0,Custom,2013-04-11 11:48:00,
2013-04-11 06:53:00,34.2,30.0,29.67,West,270,0.0,2.0,85,0.00,,,0.00,0,Custom,2013-04-11 11:53:00,
2013-04-11 06:58:00,34.2,30.0,29.67,West,272,3.0,3.0,85,0.00,,,0.00,0,Custom,2013-04-11 11:58:00,
2013-04-11 07:03:00,34.2,30.0,29.67,West,272,0.0,2.0,84,0.00,,,0.00,0,Custom,2013-04-11 12:03:00,
2013-04-11 07:08:00,34.1,30.0,29.68,West,272,0.0,2.0,84,0.00,,,0.00,0,Custom,2013-04-11 12:08:00,
2013-04-11 07:13:00,34.1,30.0,29.68,WNW,283,0.0,1.0,84,0.00,,,0.00,0,Custom,2013-04-11 12:13:00,
2013-04-11 07:18:00,34.1,30.0,29.68,WSW,239,0.0,4.0,84,0.00,,,0.00,0,Custom,2013-04-11 12:18:00,
2013-04-11 07:23:00,34.1,30.0,29.69,WNW,290,0.0,6.0,84,0.00,,,0.00,0,Custom,2013-04-11 12:23:00,
2013-04-11 07:28:00,34.0,29.0,29.69,West,266,0.0,3.0,83,0.00,,,0.00,0,Custom,2013-04-11 12:28:00,
2013-04-11 07:33:00,34.0,30.0,29.69,WNW,287,0.0,1.0,84,0.00,,,0.00,0,Custom,2013-04-11 12:33:00,
2013-04-11 07:38:00,34.1,30.0,29.69,West,280,0.0,3.0,84,0.00,,,0.00,0,Custom,2013-04-11 12:38:00,
2013-04-11 07:43:00,34.1,30.0,29.70,West,280,0.0,3.0,84,0.00,,,0.00,8.97,Custom,2013-04-11 12:43:00,
2013-04-11 07:48:00,34.2,30.0,29.70,West,280,0.0,2.0,84,0.00,,,0.00,0,Custom,2013-04-11 12:48:00,
2013-04-11 07:53:00,34.2,30.0,29.70,West,280,0.0,2.0,84,0.00,,,0.00,8.58,Custom,2013-04-11 12:53:00,
2013-04-11 07:58:00,34.2,30.0,29.69,WNW,287,0.0,2.0,84,0.00,,,0.00,10.14,Custom,2013-04-11 12:58:00,
2013-04-11 08:03:00,34.0,30.0,29.69,West,281,0.0,2.0,84,0.00,,,0.00,12.48,Custom,2013-04-11 13:03:00,
2013-04-11 08:08:00,34.0,30.0,29.69,West,279,0.0,4.0,84,0.00,,,0.00,13.65,Custom,2013-04-11 13:08:00,
2013-04-11 08:13:00,34.0,30.0,29.68,WNW,282,0.0,2.0,84,0.00,,,0.00,16.77,Custom,2013-04-11 13:13:00,
2013-04-11 08:18:00,34.0,30.0,29.68,WNW,286,0.0,1.0,84,0.00,,,0.00,19.11,Custom,2013-04-11 13:18:00,
2013-04-11 08:23:00,34.0,29.0,29.68,WNW,286,0.0,2.0,84,0.00,,,0.00,21.06,Custom,2013-04-11 13:23:00,
2013-04-11 08:28:00,34.0,30.0,29.67,WNW,282,0.0,2.0,84,0.00,,,0.00,25.35,Custom,2013-04-11 13:28:00,
2013-04-11 08:33:00,33.9,29.0,29.68,WNW,283,0.0,5.0,84,0.00,,,0.00,33.15,Custom,2013-04-11 13:33:00,
2013-04-11 08:38:00,34.1,30.0,29.67,WNW,283,0.0,2.0,84,0.00,,,0.00,36.66,Custom,2013-04-11 13:38:00,
2013-04-11 08:43:00,34.3,30.0,29.67,West,280,0.0,3.0,83,0.00,,,0.00,28.08,Custom,2013-04-11 13:43:00,
2013-04-11 08:48:00,34.2,30.0,29.67,West,275,0.0,3.0,83,0.00,,,0.00,35.88,Custom,2013-04-11 13:48:00,
2013-04-11 08:53:00,34.2,29.0,29.67,West,273,0.0,3.0,83,0.00,,,0.00,38.22,Custom,2013-04-11 13:53:00,
2013-04-11 08:58:00,34.2,29.0,29.67,WNW,289,0.0,5.0,83,0.00,,,0.00,40.95,Custom,2013-04-11 13:58:00,
2013-04-11 09:03:00,34.3,29.0,29.67,West,277,0.0,2.0,82,0.00,,,0.00,58.89,Custom,2013-04-11 14:03:00,
2013-04-11 09:08:00,34.4,29.0,29.67,WNW,287,0.0,2.0,82,0.00,,,0.00,79.95,Custom,2013-04-11 14:08:00,
2013-04-11 09:13:00,34.6,29.0,29.67,WNW,288,0.0,2.0,82,0.00,,,0.00,111.54,Custom,2013-04-11 14:13:00,
2013-04-11 09:18:00,35.2,30.0,29.67,WNW,288,0.0,2.0,82,0.00,,,0.00,92.82,Custom,2013-04-11 14:18:00,
2013-04-11 09:23:00,35.2,29.0,29.67,West,270,0.0,2.0,79,0.00,,,0.00,84.24,Custom,2013-04-11 14:23:00,
2013-04-11 09:28:00,34.9,29.0,29.67,West,270,0.0,2.0,79,0.00,,,0.00,74.1,Custom,2013-04-11 14:28:00,
2013-04-11 09:33:00,34.7,29.0,29.67,WNW,287,0.0,2.0,79,0.00,,,0.00,57.72,Custom,2013-04-11 14:33:00,
2013-04-11 09:38:00,34.6,29.0,29.67,WNW,286,0.0,2.0,80,0.00,,,0.00,58.11,Custom,2013-04-11 14:38:00,
2013-04-11 09:44:00,34.3,29.0,29.66,SSW,200,0.0,2.0,81,0.00,,,0.00,60.45,Custom,2013-04-11 14:44:00,
2013-04-11 09:49:00,34.3,29.0,29.66,West,274,0.0,2.0,82,0.00,,,0.00,74.88,Custom,2013-04-11 14:49:00,
2013-04-11 09:54:00,34.5,29.0,29.66,West,275,0.0,2.0,81,0.00,,,0.00,93.21,Custom,2013-04-11 14:54:00,
2013-04-11 09:59:00,34.5,29.0,29.66,West,277,0.0,2.0,80,0.00,,,0.00,89.31,Custom,2013-04-11 14:59:00,
2013-04-11 10:04:00,34.6,29.0,29.67,West,270,0.0,2.0,80,0.00,,,0.00,107.25,Custom,2013-04-11 15:04:00,
2013-04-11 10:09:00,34.8,29.0,29.67,WNW,284,4.0,4.0,79,0.00,,,0.00,127.14,Custom,2013-04-11 15:09:00,
2013-04-11 10:14:00,35.0,29.0,29.67,West,281,3.0,3.0,78,0.00,,,0.00,146.25,Custom,2013-04-11 15:14:00,
2013-04-11 10:19:00,35.0,29.0,29.67,West,275,1.0,2.0,78,0.00,,,0.00,155.22,Custom,2013-04-11 15:19:00,
2013-04-11 10:24:00,35.5,29.0,29.67,West,276,5.0,5.0,77,0.00,,,0.00,131.04,Custom,2013-04-11 15:24:00,
2013-04-11 10:29:00,35.2,29.0,29.67,WNW,291,0.0,2.0,77,0.00,,,0.00,136.5,Custom,2013-04-11 15:29:00,
2013-04-11 10:34:00,35.3,29.0,29.67,WNW,286,2.0,2.0,76,0.00,,,0.00,144.3,Custom,2013-04-11 15:34:00,
2013-04-11 10:39:00,35.2,28.0,29.66,WNW,298,4.0,4.0,76,0.00,,,0.00,127.14,Custom,2013-04-11 15:39:00,
2013-04-11 10:44:00,34.9,28.0,29.66,West,268,1.0,2.0,76,0.00,,,0.00,138.06,Custom,2013-04-11 15:44:00,
2013-04-11 10:49:00,34.9,28.0,29.66,West,263,4.0,4.0,77,0.00,,,0.00,148.98,Custom,2013-04-11 15:49:00,
2013-04-11 10:54:00,35.0,28.0,29.66,West,274,4.0,4.0,76,0.00,,,0.00,159.12,Custom,2013-04-11 15:54:00,
2013-04-11 10:59:00,35.2,29.0,29.66,WNW,292,6.0,6.0,76,0.00,,,0.00,176.67,Custom,2013-04-11 15:59:00,
2013-04-11 11:04:00,35.3,28.0,29.66,West,275,7.0,7.0,75,0.00,,,0.00,242.97,Custom,2013-04-11 16:04:00,
2013-04-11 11:09:00,35.7,28.0,29.66,West,259,4.0,7.0,74,0.00,,,0.00,251.55,Custom,2013-04-11 16:09:00,
2013-04-11 11:14:00,35.7,28.0,29.66,WNW,285,5.0,7.0,74,0.00,,,0.00,215.67,Custom,2013-04-11 16:14:00,
2013-04-11 11:19:00,36.1,28.0,29.67,West,279,5.0,6.0,72,0.00,,,0.00,240.24,Custom,2013-04-11 16:19:00,
2013-04-11 11:24:00,36.4,29.0,29.67,West,273,3.0,6.0,74,0.00,,,0.00,246.09,Custom,2013-04-11 16:24:00,
2013-04-11 11:29:00,36.5,28.0,29.67,West,266,4.0,8.0,71,0.00,,,0.00,267.54,Custom,2013-04-11 16:29:00,
2013-04-11 11:34:00,36.2,28.0,29.67,West,268,2.0,8.0,72,0.00,,,0.00,215.67,Custom,2013-04-11 16:34:00,
2013-04-11 11:40:00,36.3,28.0,29.67,WNW,284,3.0,5.0,71,0.00,,,0.00,233.61,Custom,2013-04-11 16:40:00,
2013-04-11 11:45:00,36.3,28.0,29.67,WNW,292,4.0,5.0,71,0.00,,,0.00,206.7,Custom,2013-04-11 16:45:00,
2013-04-11 11:50:00,36.6,29.0,29.67,WNW,283,4.0,5.0,73,0.00,,,0.00,187.2,Custom,2013-04-11 16:50:00,
2013-04-11 11:55:00,36.7,28.0,29.67,West,279,4.0,5.0,72,0.00,,,0.00,165.36,Custom,2013-04-11 16:55:00,
2013-04-11 12:00:00,36.4,28.0,29.67,West,268,2.0,5.0,72,0.00,,,0.00,151.32,Custom,2013-04-11 17:00:00,
2013-04-11 12:05:00,36.6,28.0,29.67,WNW,282,4.0,4.0,72,0.00,,,0.00,159.51,Custom,2013-04-11 17:05:00,
2013-04-11 12:10:00,36.3,29.0,29.67,West,273,5.0,5.0,73,0.00,,,0.00,146.25,Custom,2013-04-11 17:10:00,
2013-04-11 12:15:00,36.2,29.0,29.67,WSW,239,4.0,7.0,75,0.00,,,0.00,103.35,Custom,2013-04-11 17:15:00,
2013-04-11 12:20:00,36.2,29.0,29.67,SSW,211,0.0,5.0,76,0.00,,,0.00,146.64,Custom,2013-04-11 17:20:00,
2013-04-11 12:25:00,36.7,29.0,29.66,West,267,5.0,5.0,75,0.00,,,0.00,256.23,Custom,2013-04-11 17:25:00,
2013-04-11 12:30:00,37.6,29.0,29.66,West,278,4.0,6.0,73,0.00,,,0.00,250.38,Custom,2013-04-11 17:30:00,
2013-04-11 12:35:00,37.6,30.0,29.65,SSW,209,4.0,4.0,74,0.00,,,0.00,191.1,Custom,2013-04-11 17:35:00,
2013-04-11 12:40:00,37.2,28.0,29.66,West,280,0.0,7.0,70,0.00,,,0.00,300.69,Custom,2013-04-11 17:40:00,
2013-04-11 12:45:00,38.1,30.0,29.66,WNW,286,2.0,5.0,72,0.00,,,0.00,336.18,Custom,2013-04-11 17:45:00,
2013-04-11 12:50:00,38.7,30.0,29.66,West,280,0.0,6.0,70,0.00,,,0.00,298.35,Custom,2013-04-11 17:50:00,
2013-04-11 12:55:00,38.4,29.0,29.66,WNW,283,4.0,4.0,68,0.00,,,0.00,230.49,Custom,2013-04-11 17:55:00,
2013-04-11 13:00:00,39.1,29.0,29.66,ENE,59,4.0,6.0,68,0.00,,,0.00,524.94,Custom,2013-04-11 18:00:00,
2013-04-11 13:05:00,39.3,29.0,29.66,WNW,285,4.0,8.0,66,0.00,,,0.00,265.59,Custom,2013-04-11 18:05:00,
2013-04-11 13:10:00,39.1,29.0,29.65,WNW,291,0.0,5.0,68,0.00,,,0.00,311.22,Custom,2013-04-11 18:10:00,
2013-04-11 13:15:00,40.2,29.0,29.66,WNW,303,5.0,6.0,65,0.00,,,0.00,298.35,Custom,2013-04-11 18:15:00,
2013-04-11 13:20:00,40.1,30.0,29.66,SSW,213,0.0,8.0,67,0.00,,,0.00,407.94,Custom,2013-04-11 18:20:00,
2013-04-11 13:25:00,40.5,29.0,29.66,WNW,294,0.0,5.0,65,0.00,,,0.00,317.85,Custom,2013-04-11 18:25:00,
2013-04-11 13:31:00,40.3,30.0,29.65,WNW,302,5.0,8.0,65,0.00,,,0.00,681.72,Custom,2013-04-11 18:31:00,
2013-04-11 13:36:00,41.1,30.0,29.65,WNW,283,7.0,8.0,65,0.00,,,0.00,306.93,Custom,2013-04-11 18:36:00,
2013-04-11 13:42:00,40.3,30.0,29.65,West,275,4.0,6.0,65,0.00,,,0.00,219.18,Custom,2013-04-11 18:42:00,
2013-04-11 13:47:00,40.0,30.0,29.65,SW,235,0.0,5.0,66,0.00,,,0.00,216.06,Custom,2013-04-11 18:47:00,
2013-04-11 13:52:00,40.8,30.0,29.65,WNW,287,6.0,6.0,65,0.00,,,0.00,301.47,Custom,2013-04-11 18:52:00,
2013-04-11 13:57:00,40.1,30.0,29.65,WNW,290,4.0,6.0,66,0.00,,,0.00,233.61,Custom,2013-04-11 18:57:00,
2013-04-11 14:02:00,40.0,30.0,29.65,WSW,245,0.0,5.0,66,0.00,,,0.00,210.99,Custom,2013-04-11 19:02:00,
2013-04-11 14:07:00,40.6,30.0,29.64,WNW,299,0.0,5.0,66,0.00,,,0.00,209.43,Custom,2013-04-11 19:07:00,
2013-04-11 14:12:00,40.9,29.0,29.64,WNW,282,4.0,9.0,63,0.00,,,0.00,357.63,Custom,2013-04-11 19:12:00,
2013-04-11 14:17:00,40.9,29.0,29.65,WNW,291,6.0,6.0,63,0.00,,,0.00,235.17,Custom,2013-04-11 19:17:00,
2013-04-11 14:22:00,41.0,30.0,29.64,WNW,285,3.0,6.0,65,0.00,,,0.00,297.18,Custom,2013-04-11 19:22:00,
2013-04-11 14:28:00,40.9,30.0,29.65,WNW,288,3.0,7.0,64,0.00,,,0.00,236.73,Custom,2013-04-11 19:28:00,
2013-04-11 14:33:00,41.0,30.0,29.65,West,271,4.0,7.0,65,0.00,,,0.00,157.56,Custom,2013-04-11 19:33:00,
2013-04-11 14:38:00,40.4,30.0,29.65,WNW,289,3.0,5.0,67,0.00,,,0.00,162.24,Custom,2013-04-11 19:38:00,
2013-04-11 14:43:00,40.3,29.0,29.64,WNW,285,5.0,5.0,64,0.00,,,0.00,184.86,Custom,2013-04-11 19:43:00,
2013-04-11 14:48:00,41.0,31.0,29.64,West,264,2.0,6.0,66,0.00,,,0.00,208.65,Custom,2013-04-11 19:48:00,
2013-04-11 14:53:00,41.2,30.0,29.64,West,275,6.0,6.0,64,0.00,,,0.00,294.84,Custom,2013-04-11 19:53:00,
2013-04-11 14:58:00,41.2,30.0,29.64,WNW,285,3.0,9.0,65,0.00,,,0.00,241.41,Custom,2013-04-11 19:58:00,
2013-04-11 15:03:00,42.5,30.0,29.62,WNW,286,3.0,6.0,61,0.00,,,0.00,386.1,Custom,2013-04-11 20:03:00,
2013-04-11 15:08:00,42.5,30.0,29.63,WNW,287,0.0,4.0,62,0.00,,,0.00,279.63,Custom,2013-04-11 20:08:00,
2013-04-11 15:13:00,41.8,30.0,29.64,WNW,294,1.0,6.0,62,0.00,,,0.00,219.96,Custom,2013-04-11 20:13:00,
2013-04-11 15:18:00,41.7,30.0,29.63,WNW,285,4.0,4.0,62,0.00,,,0.00,257.01,Custom,2013-04-11 20:18:00,
2013-04-11 15:23:00,41.9,30.0,29.62,WNW,299,4.0,7.0,62,0.00,,,0.00,267.93,Custom,2013-04-11 20:23:00,
2013-04-11 15:28:00,41.8,30.0,29.62,WNW,287,3.0,6.0,63,0.00,,,0.00,315.12,Custom,2013-04-11 20:28:00,
2013-04-11 15:33:00,42.8,31.0,29.62,WSW,244,0.0,7.0,62,0.00,,,0.00,416.52,Custom,2013-04-11 20:33:00,
2013-04-11 15:38:00,42.8,30.0,29.62,WNW,293,2.0,8.0,61,0.00,,,0.00,217.62,Custom,2013-04-11 20:38:00,
2013-04-11 15:43:00,42.6,31.0,29.62,WNW,289,4.0,4.0,62,0.00,,,0.00,246.09,Custom,2013-04-11 20:43:00,
2013-04-11 15:48:00,43.1,31.0,29.62,NW,306,0.0,6.0,62,0.00,,,0.00,331.5,Custom,2013-04-11 20:48:00,
2013-04-11 15:53:00,43.9,30.0,29.62,WNW,291,3.0,7.0,60,0.00,,,0.00,834.6,Custom,2013-04-11 20:53:00,
2013-04-11 15:58:00,45.0,32.0,29.61,WNW,283,2.0,4.0,60,0.00,,,0.00,583.83,Custom,2013-04-11 20:58:00,
2013-04-11 16:03:00,45.9,31.0,29.60,WNW,285,2.0,5.0,55,0.00,,,0.00,796.38,Custom,2013-04-11 21:03:00,
2013-04-11 16:08:00,45.2,30.0,29.61,West,281,3.0,6.0,55,0.00,,,0.00,368.16,Custom,2013-04-11 21:08:00,
2013-04-11 16:13:00,43.5,29.0,29.61,West,278,5.0,8.0,56,0.00,,,0.00,254.28,Custom,2013-04-11 21:13:00,
2013-04-11 16:18:00,42.9,30.0,29.62,WNW,297,4.0,8.0,60,0.00,,,0.00,249.99,Custom,2013-04-11 21:18:00,
2013-04-11 16:23:00,42.8,30.0,29.62,WNW,292,2.0,8.0,60,0.00,,,0.00,154.44,Custom,2013-04-11 21:23:00,
2013-04-11 16:29:00,41.9,30.0,29.62,WNW,284,5.0,6.0,61,0.00,,,0.00,113.88,Custom,2013-04-11 21:29:00,
2013-04-11 16:34:00,41.8,30.0,29.62,WNW,293,0.0,9.0,63,0.00,,,0.00,105.3,Custom,2013-04-11 21:34:00,
2013-04-11 16:39:00,41.8,31.0,29.62,WNW,285,7.0,7.0,64,0.00,,,0.00,108.03,Custom,2013-04-11 21:39:00,
2013-04-11 16:44:00,41.7,30.0,29.62,West,274,3.0,6.0,63,0.00,,,0.00,145.08,Custom,2013-04-11 21:44:00,
2013-04-11 16:49:00,41.9,30.0,29.62,West,268,0.0,6.0,62,0.00,,,0.00,144.69,Custom,2013-04-11 21:49:00,
2013-04-11 16:54:00,42.0,30.0,29.62,WNW,297,3.0,4.0,63,0.00,,,0.00,112.32,Custom,2013-04-11 21:54:00,
2013-04-11 16:59:00,41.8,30.0,29.62,WNW,289,4.0,7.0,63,0.00,,,0.00,77.22,Custom,2013-04-11 21:59:00,
2013-04-11 17:04:00,41.7,30.0,29.62,WNW,300,4.0,6.0,63,0.00,,,0.00,72.54,Custom,2013-04-11 22:04:00,
2013-04-11 17:09:00,41.5,30.0,29.62,WNW,294,0.0,6.0,64,0.00,,,0.00,71.76,Custom,2013-04-11 22:09:00,
2013-04-11 17:14:00,41.3,29.0,29.62,West,276,3.0,7.0,62,0.00,,,0.00,60.06,Custom,2013-04-11 22:14:00,
2013-04-11 17:19:00,41.1,29.0,29.62,WNW,300,6.0,7.0,63,0.00,,,0.00,58.89,Custom,2013-04-11 22:19:00,
2013-04-11 17:24:00,40.9,29.0,29.62,WNW,289,3.0,8.0,64,0.00,,,0.00,63.18,Custom,2013-04-11 22:24:00,
2013-04-11 17:29:00,41.0,30.0,29.62,West,272,0.0,4.0,64,0.00,,,0.00,82.68,Custom,2013-04-11 22:29:00,
2013-04-11 17:34:00,41.2,30.0,29.62,West,275,0.0,4.0,65,0.00,,,0.00,81.12,Custom,2013-04-11 22:34:00,
2013-04-11 17:39:00,41.4,30.0,29.62,WNW,302,3.0,3.0,64,0.00,,,0.00,83.46,Custom,2013-04-11 22:39:00,
2013-04-11 17:44:00,41.2,29.0,29.62,WNW,292,4.0,6.0,62,0.00,,,0.00,76.05,Custom,2013-04-11 22:44:00,
2013-04-11 17:49:00,41.0,29.0,29.62,WNW,299,0.0,4.0,62,0.00,,,0.00,69.03,Custom,2013-04-11 22:49:00,
2013-04-11 17:54:00,41.1,29.0,29.62,WNW,299,0.0,2.0,63,0.00,,,0.00,72.54,Custom,2013-04-11 22:54:00,
2013-04-11 17:59:00,41.1,29.0,29.62,WNW,290,0.0,3.0,63,0.00,,,0.00,60.84,Custom,2013-04-11 22:59:00,
2013-04-11 18:04:00,41.0,29.0,29.62,WNW,290,3.0,3.0,63,0.00,,,0.00,67.47,Custom,2013-04-11 23:04:00,
2013-04-11 18:09:00,41.1,29.0,29.62,WNW,298,0.0,5.0,62,0.00,,,0.00,56.94,Custom,2013-04-11 23:09:00,
2013-04-11 18:14:00,40.8,29.0,29.63,West,281,4.0,4.0,63,0.00,,,0.00,47.58,Custom,2013-04-11 23:14:00,
2013-04-11 18:19:00,40.7,29.0,29.63,WNW,283,2.0,4.0,62,0.00,,,0.00,41.73,Custom,2013-04-11 23:19:00,
2013-04-11 18:24:00,40.7,29.0,29.63,WNW,282,0.0,4.0,64,0.00,,,0.00,31.59,Custom,2013-04-11 23:24:00,
2013-04-11 18:29:00,40.5,29.0,29.64,WNW,291,0.0,3.0,63,0.00,,,0.00,25.35,Custom,2013-04-11 23:29:00,
2013-04-11 18:34:00,40.4,29.0,29.64,NW,309,0.0,5.0,63,0.00,,,0.00,23.01,Custom,2013-04-11 23:34:00,
2013-04-11 18:39:00,40.3,29.0,29.64,West,279,2.0,5.0,63,0.00,,,0.00,23.4,Custom,2013-04-11 23:39:00,
2013-04-11 18:44:00,40.2,29.0,29.65,West,280,2.0,4.0,64,0.00,,,0.00,30.81,Custom,2013-04-11 23:44:00,
2013-04-11 18:49:00,40.2,29.0,29.65,West,270,0.0,4.0,63,0.00,,,0.00,21.45,Custom,2013-04-11 23:49:00,
2013-04-11 18:54:00,40.1,28.0,29.65,NW,322,3.0,3.0,63,0.00,,,0.00,20.28,Custom,2013-04-11 23:54:00,
2013-04-11 18:59:00,40.1,29.0,29.65,WNW,285,0.0,3.0,64,0.00,,,0.00,21.84,Custom,2013-04-11 23:59:00,
2013-04-11 19:04:00,40.0,29.0,29.65,WNW,290,0.0,4.0,63,0.00,,,0.00,21.06,Custom,2013-04-12 00:04:00,
2013-04-11 19:09:00,40.0,29.0,29.65,WNW,287,3.0,3.0,64,0.00,,,0.00,16.38,Custom,2013-04-12 00:09:00,
2013-04-11 19:14:00,39.9,29.0,29.65,WNW,284,5.0,5.0,64,0.00,,,0.00,15.6,Custom,2013-04-12 00:14:00,
2013-04-11 19:19:00,39.8,29.0,29.65,West,273,0.0,4.0,65,0.00,,,0.00,16.77,Custom,2013-04-12 00:19:00,
2013-04-11 19:24:00,39.8,29.0,29.66,WNW,291,0.0,4.0,64,0.00,,,0.00,10.53,Custom,2013-04-12 00:24:00,
2013-04-11 19:29:00,39.7,29.0,29.66,WNW,291,0.0,2.0,65,0.00,,,0.00,0,Custom,2013-04-12 00:29:00,
2013-04-11 19:34:00,39.5,29.0,29.65,WNW,296,0.0,4.0,65,0.00,,,0.00,0,Custom,2013-04-12 00:34:00,
2013-04-11 19:39:00,39.4,29.0,29.66,WNW,303,0.0,4.0,65,0.00,,,0.00,0,Custom,2013-04-12 00:39:00,
2013-04-11 19:44:00,39.3,29.0,29.66,West,276,0.0,3.0,67,0.00,,,0.00,0,Custom,2013-04-12 00:44:00,
2013-04-11 19:49:00,39.2,29.0,29.66,West,274,0.0,2.0,66,0.00,,,0.00,0,Custom,2013-04-12 00:49:00,
2013-04-11 19:54:00,39.1,29.0,29.66,West,274,0.0,0.0,67,0.00,,,0.00,0,Custom,2013-04-12 00:54:00,
2013-04-11 19:59:00,39.0,29.0,29.66,West,274,0.0,1.0,68,0.00,,,0.00,0,Custom,2013-04-12 00:59:00,
2013-04-11 20:04:00,38.9,29.0,29.67,West,279,0.0,2.0,68,0.00,,,0.00,0,Custom,2013-04-12 01:04:00,
2013-04-11 20:09:00,39.0,29.0,29.67,West,279,1.0,1.0,68,0.00,,,0.00,0,Custom,2013-04-12 01:09:00,
2013-04-11 20:14:00,38.9,29.0,29.67,West,277,0.0,2.0,68,0.00,,,0.00,0,Custom,2013-04-12 01:14:00,
2013-04-11 20:19:00,39.0,29.0,29.67,WNW,295,0.0,4.0,66,0.00,,,0.00,0,Custom,2013-04-12 01:19:00,
2013-04-11 20:24:00,39.0,28.0,29.67,WNW,289,0.0,3.0,65,0.00,,,0.00,0,Custom,2013-04-12 01:24:00,
2013-04-11 20:29:00,39.0,29.0,29.66,WNW,289,0.0,3.0,66,0.00,,,0.00,0,Custom,2013-04-12 01:29:00,
2013-04-11 20:34:00,39.0,28.0,29.67,West,274,0.0,6.0,65,0.00,,,0.00,0,Custom,2013-04-12 01:34:00,
2013-04-11 20:39:00,38.9,28.0,29.67,WNW,289,0.0,3.0,65,0.00,,,0.00,0,Custom,2013-04-12 01:39:00,
2013-04-11 20:44:00,38.9,28.0,29.67,West,262,4.0,4.0,65,0.00,,,0.00,0,Custom,2013-04-12 01:44:00,
2013-04-11 20:49:00,38.8,28.0,29.67,WNW,293,0.0,6.0,66,0.00,,,0.00,0,Custom,2013-04-12 01:49:00,
2013-04-11 20:54:00,38.8,28.0,29.67,WNW,302,0.0,2.0,65,0.00,,,0.00,0,Custom,2013-04-12 01:54:00,
2013-04-11 20:59:00,38.7,28.0,29.67,NW,304,0.0,2.0,65,0.00,,,0.00,0,Custom,2013-04-12 01:59:00,
2013-04-11 21:04:00,38.7,28.0,29.67,WNW,295,0.0,3.0,66,0.00,,,0.00,0,Custom,2013-04-12 02:04:00,
2013-04-11 21:09:00,38.6,28.0,29.67,WNW,297,0.0,2.0,65,0.00,,,0.00,0,Custom,2013-04-12 02:09:00,
2013-04-11 21:14:00,38.6,28.0,29.67,WNW,283,0.0,4.0,65,0.00,,,0.00,0,Custom,2013-04-12 02:14:00,
2013-04-11 21:19:00,38.5,28.0,29.67,WNW,291,0.0,2.0,66,0.00,,,0.00,0,Custom,2013-04-12 02:19:00,
2013-04-11 21:24:00,38.4,28.0,29.67,WNW,292,0.0,2.0,66,0.00,,,0.00,0,Custom,2013-04-12 02:24:00,
2013-04-11 21:29:00,38.2,28.0,29.67,WNW,286,0.0,4.0,65,0.00,,,0.00,0,Custom,2013-04-12 02:29:00,
2013-04-11 21:34:00,38.3,27.0,29.68,WNW,287,0.0,3.0,64,0.00,,,0.00,0,Custom,2013-04-12 02:34:00,
2013-04-11 21:39:00,38.3,28.0,29.68,West,279,0.0,3.0,66,0.00,,,0.00,0,Custom,2013-04-12 02:39:00,
2013-04-11 21:44:00,38.0,28.0,29.68,WNW,290,0.0,1.0,66,0.00,,,0.00,0,Custom,2013-04-12 02:44:00,
2013-04-11 21:49:00,38.0,28.0,29.68,WNW,289,0.0,2.0,66,0.00,,,0.00,0,Custom,2013-04-12 02:49:00,
2013-04-11 21:54:00,38.0,27.0,29.69,WNW,293,0.0,3.0,65,0.00,,,0.00,0,Custom,2013-04-12 02:54:00,
2013-04-11 21:59:00,38.0,28.0,29.69,WNW,287,0.0,2.0,66,0.00,,,0.00,0,Custom,2013-04-12 02:59:00,
2013-04-11 22:04:00,37.2,28.0,29.69,WNW,287,0.0,0.0,68,0.00,,,0.00,0,Custom,2013-04-12 03:04:00,
2013-04-11 22:09:00,36.7,28.0,29.69,WNW,287,0.0,0.0,69,0.00,,,0.00,0,Custom,2013-04-12 03:09:00,
2013-04-11 22:14:00,36.5,28.0,29.69,WNW,287,0.0,0.0,70,0.00,,,0.00,0,Custom,2013-04-12 03:14:00,
2013-04-11 22:19:00,35.9,28.0,29.69,WNW,287,0.0,0.0,72,0.00,,,0.00,0,Custom,2013-04-12 03:19:00,
2013-04-11 22:24:00,35.0,28.0,29.69,WNW,287,0.0,0.0,74,0.00,,,0.00,0,Custom,2013-04-12 03:24:00,
2013-04-11 22:29:00,34.7,28.0,29.69,WNW,287,0.0,0.0,75,0.00,,,0.00,0,Custom,2013-04-12 03:29:00,
2013-04-11 22:34:00,34.4,28.0,29.69,WNW,287,0.0,0.0,76,0.00,,,0.00,0,Custom,2013-04-12 03:34:00,
2013-04-11 22:39:00,34.4,28.0,29.69,WNW,287,0.0,0.0,76,0.00,,,0.00,0,Custom,2013-04-12 03:39:00,
2013-04-11 22:44:00,34.4,28.0,29.69,WNW,287,0.0,0.0,76,0.00,,,0.00,0,Custom,2013-04-12 03:44:00,
2013-04-11 22:49:00,34.6,28.0,29.69,WNW,287,0.0,0.0,76,0.00,,,0.00,0,Custom,2013-04-12 03:49:00,
2013-04-11 22:54:00,34.7,28.0,29.69,WNW,287,0.0,0.0,76,0.00,,,0.00,0,Custom,2013-04-12 03:54:00,
2013-04-11 22:59:00,34.2,28.0,29.69,WNW,287,0.0,0.0,76,0.00,,,0.00,0,Custom,2013-04-12 03:59:00,
2013-04-11 23:00:00,34.2,28.0,29.69,WNW,287,0.0,0.0,76,0.00,,,0.00,0,Custom,2013-04-12 04:00:00,
2013-04-11 23:01:00,34.2,28.0,29.69,WNW,287,0.0,0.0,76,0.00,,,0.00,0,Custom,2013-04-12 04:01:00,
2013-04-11 23:06:00,33.8,27.0,29.69,WNW,287,0.0,0.0,77,0.00,,,0.00,0,Custom,2013-04-12 04:06:00,
2013-04-11 23:11:00,33.9,28.0,29.69,WNW,287,0.0,0.0,77,0.00,,,0.00,0,Custom,2013-04-12 04:11:00,
2013-04-11 23:16:00,34.2,28.0,29.69,WNW,287,0.0,0.0,76,0.00,,,0.00,0,Custom,2013-04-12 04:16:00,
2013-04-11 23:21:00,34.4,28.0,29.69,WNW,287,0.0,0.0,76,0.00,,,0.00,0,Custom,2013-04-12 04:21:00,
2013-04-11 23:26:00,34.3,28.0,29.69,WNW,287,3.0,0.0,77,0.00,,,0.00,0,Custom,2013-04-12 04:26:00,
2013-04-11 23:31:00,34.5,28.0,29.69,WNW,287,0.0,2.0,76,0.00,,,0.00,0,Custom,2013-04-12 04:31:00,
2013-04-11 23:36:00,34.5,28.0,29.69,WNW,287,0.0,2.0,76,0.00,,,0.00,0,Custom,2013-04-12 04:36:00,
2013-04-11 23:41:00,34.6,28.0,29.69,WNW,287,0.0,2.0,76,0.00,,,0.00,0,Custom,2013-04-12 04:41:00,
2013-04-11 23:46:00,34.4,28.0,29.69,WNW,287,0.0,1.0,77,0.00,,,0.00,0,Custom,2013-04-12 04:46:00,
2013-04-11 23:51:00,33.9,28.0,29.69,WNW,287,0.0,0.0,77,0.00,,,0.00,0,Custom,2013-04-12 04:51:00,
2013-04-11 23:57:00,33.4,27.0,29.69,WNW,287,0.0,1.0,78,0.00,,,0.00,0,Custom,2013-04-12 04:57:00,